Location: Rounton
(54.4000°N, 1.3500°W)
Time: 22:41:32
(UTC+00:00)

Vanguard 1 Rocket - Pass Details

Date: 05 December 2021
Orbit: 651 x 4224 km, 34.3° (Epoch: 16 January)

Event Time Altitude Azimuth Distance (km) Brightness Sun altitude
Rises 07:18:38 0° 266° (W) 6,173 11.1 -6.9°
Reaches altitude 10° 07:22:57 10° 256° (WSW) 5,632 11.0 -6.4°
Maximum altitude 07:37:28 29° 205° (SSW) 5,347 11.4 -4.6°
Drops below altitude 10° 07:56:45 10° 157° (SSE) 7,424 13.2 -2.3°
Sets 08:03:52 0° 148° (SSE) 8,378 14.0 -1.4°
